Date,TemperatureHighF,TemperatureAvgF,TemperatureLowF,DewpointHighF,DewpointAvgF,DewpointLowF,HumidityHigh,HumidityAvg,HumidityLow,PressureMaxIn,PressureMinIn,WindSpeedMaxMPH,WindSpeedAvgMPH,GustSpeedMaxMPH,PrecipitationSumIn
2013-3-1,43.9,32.0,24.7,27.7,24.3,21.4,88,74,47,30.57,30.37,7,1,16,0.09
2013-3-2,52.9,36.6,23.2,26.9,22.3,18.3,82,60,30,30.58,30.13,8,1,14,0.00
2013-3-3,50.1,36.6,27.5,34.2,25.6,21.6,90,67,33,30.13,29.76,6,1,14,0.20
2013-3-4,40.6,32.7,19.7,36.6,21.1,6.4,92,66,31,30.34,29.69,8,1,21,0.34
2013-3-5,46.2,26.4,11.6,15.3,7.8,2.0,70,49,18,30.63,30.19,4,1,9,0.00
2013-3-6,58.3,36.4,18.3,23.2,17.0,11.1,74,49,19,30.25,29.78,5,1,12,0.00
2013-3-7,61.2,42.8,29.1,23.0,19.1,12.5,70,43,15,29.98,29.72,4,1,14,0.00
2013-3-8,54.4,39.2,28.2,32.3,23.3,16.0,87,56,23,29.90,29.51,8,1,18,0.06
2013-3-9,35.5,32.3,27.2,32.3,29.1,22.7,91,88,83,30.12,29.50,4,1,12,0.12
2013-3-10,42.5,27.4,13.0,22.4,16.9,8.0,84,67,41,30.42,30.13,3,1,7,0.01
2013-3-11,49.2,33.7,20.0,26.2,19.6,14.2,80,59,32,30.35,30.02,4,1,13,0.00
2013-3-12,54.7,42.1,33.1,29.2,25.1,21.4,73,53,30,30.22,30.02,4,0,15,0.00
2013-3-13,58.4,41.8,27.6,26.3,23.2,19.3,80,52,23,30.41,30.18,6,1,13,0.00
2013-3-14,65.3,43.4,27.0,26.4,23.2,19.5,77,50,18,30.47,30.11,5,1,12,0.00
2013-3-15,66.3,46.0,29.5,27.8,25.3,23.0,77,49,21,30.19,29.81,4,2,12,0.00
2013-3-16,56.3,44.1,36.3,33.3,29.2,25.5,73,56,32,29.85,29.66,8,1,19,0.00
2013-3-17,48.3,38.9,30.1,36.7,23.7,7.2,91,60,23,29.79,29.58,8,1,27,0.17
2013-3-18,47.7,38.5,29.5,16.1,12.1,6.1,51,35,21,29.95,29.77,6,1,20,0.00
2013-3-19,50.8,39.5,28.8,18.9,6.4,-7.7,57,30,9,30.23,29.90,7,1,18,0.00
2013-3-20,49.9,34.3,20.7,34.0,15.7,3.8,82,50,22,30.29,29.81,6,1,12,0.01
2013-3-21,45.5,36.4,30.4,34.6,27.3,18.8,91,71,38,29.90,29.62,11,1,24,0.36
2013-3-22,46.2,33.2,24.1,20.2,15.2,7.7,74,51,22,29.91,29.55,11,2,20,0.00
2013-3-23,32.5,25.6,21.1,20.5,11.4,3.6,79,55,38,30.23,29.74,15,3,24,0.00
2013-3-24,31.9,19.6,12.1,16.1,4.0,-1.2,71,52,27,30.35,30.17,8,1,20,0.00
2013-3-25,41.3,24.6,8.1,6.7,0.8,-3.3,62,39,16,30.51,30.21,6,1,14,0.00
2013-3-26,55.9,38.3,21.9,23.0,13.6,5.1,61,38,22,30.29,29.80,9,1,16,0.00
2013-3-27,62.1,47.0,31.5,27.9,21.9,15.9,72,40,18,29.98,29.74,5,1,19,0.00
2013-3-28,62.3,45.6,29.5,25.9,22.8,19.1,71,44,20,30.08,29.85,7,1,15,0.00
2013-3-29,62.6,49.0,37.9,33.5,27.9,24.1,62,46,24,30.08,29.88,9,1,21,0.00
2013-3-30,63.7,46.9,30.3,32.3,26.4,20.4,83,50,21,30.15,29.89,10,1,19,0.00
2013-3-31,65.8,46.1,28.1,26.1,22.5,17.6,79,45,18,30.15,29.81,4,1,16,0.00